When you browse on this site, cookies collect data to enhance your experience and personalize the content and advertising you see.
Visit our Privacy Policy to learn more. By continuing to use the site, you agree to this use of cookies and data.
  • In Hungary
  • List of Countries
  • For 7 days
  • Water Temperature
  • Weather Map
  • News
  • Weather Widgets
  • user-avatar
    Login

    Hourly Weather Havana

    Today, 8 December, Sunday

    Time Temperature Precipitation Wind Pressure Humidity
    00:00 +20°C° 0 mm 3 mps 763 mmHg 85%
    01:00 +20°C° 0 mm 2 mps 763 mmHg 87%
    02:00 +20°C° 0 mm 2 mps 763 mmHg 87%
    03:00 +20°C° 0 mm 2 mps 763 mmHg 86%
    04:00 +20°C° 0 mm 2 mps 763 mmHg 86%
    05:00 +20°C° 0 mm 3 mps 763 mmHg 86%
    06:00 +19°C° 0 mm 3 mps 763 mmHg 86%
    07:00 +19°C° 0 mm 3 mps 763 mmHg 86%
    08:00 +22°C° 0 mm 4 mps 764 mmHg 79%
    09:00 +25°C° 0 mm 4 mps 764 mmHg 71%
    10:00 +27°C° 0 mm 4 mps 764 mmHg 64%
    11:00 +27°C° 0 mm 4 mps 764 mmHg 62%
    12:00 +28°C° 0 mm 5 mps 763 mmHg 60%
    13:00 +29°C° 0 mm 5 mps 763 mmHg 59%
    14:00 +28°C° 0 mm 5 mps 762 mmHg 61%
    15:00 +28°C° 0 mm 5 mps 762 mmHg 63%
    16:00 +27°C° 0 mm 5 mps 762 mmHg 65%
    17:00 +26°C° 0 mm 5 mps 762 mmHg 71%
    18:00 +23°C° 0 mm 5 mps 762 mmHg 78%
    19:00 +21°C° 0 mm 5 mps 763 mmHg 84%
    20:00 +21°C° 0 mm 5 mps 763 mmHg 86%
    21:00 +21°C° 0 mm 5 mps 763 mmHg 88%
    22:00 +20°C° 0 mm 5 mps 763 mmHg 90%
    23:00 +20°C° 0 mm 5 mps 763 mmHg 90%

    Tomorrow, 9 December, Monday

    Time Temperature Precipitation Wind Pressure Humidity
    00:00 +20°C° 0 mm 4 mps 762 mmHg 90%
    01:00 +20°C° 0 mm 4 mps 762 mmHg 90%
    02:00 +20°C° 0 mm 4 mps 762 mmHg 91%
    03:00 +19°C° 0 mm 4 mps 762 mmHg 91%
    04:00 +19°C° 0 mm 3 mps 762 mmHg 92%
    05:00 +19°C° 0 mm 3 mps 762 mmHg 92%
    06:00 +19°C° 0 mm 4 mps 762 mmHg 92%
    07:00 +19°C° 0 mm 4 mps 763 mmHg 92%
    08:00 +21°C° 0 mm 4 mps 763 mmHg 85%
    09:00 +25°C° 0 mm 4 mps 763 mmHg 79%
    10:00 +27°C° 0 mm 5 mps 763 mmHg 73%
    11:00 +28°C° 0 mm 5 mps 763 mmHg 70%
    12:00 +29°C° 0 mm 4 mps 762 mmHg 66%
    13:00 +30°C° 0 mm 4 mps 762 mmHg 63%
    14:00 +29°C° 0.1 mm 4 mps 761 mmHg 66%
    15:00 +29°C° 0.1 mm 4 mps 761 mmHg 70%
    16:00 +29°C° 0.1 mm 4 mps 760 mmHg 73%
    17:00 +27°C° 0.1 mm 4 mps 761 mmHg 79%
    18:00 +26°C° 0.1 mm 4 mps 761 mmHg 84%
    19:00 +23°C° 0.1 mm 4 mps 761 mmHg 90%
    20:00 +23°C° 0 mm 4 mps 762 mmHg 91%
    21:00 +22°C° 0 mm 3 mps 762 mmHg 91%
    22:00 +22°C° 0 mm 3 mps 762 mmHg 92%
    23:00 +23°C° 0 mm 2 mps 762 mmHg 91%

    Day after tomorrow, 10 December, Tuesday

    Time Temperature Precipitation Wind Pressure Humidity
    00:00 +23°C° 0 mm 2 mps 762 mmHg 91%
    01:00 +23°C° 0 mm 2 mps 762 mmHg 90%
    02:00 +23°C° 0 mm 2 mps 761 mmHg 91%
    03:00 +22°C° 0 mm 3 mps 761 mmHg 92%
    04:00 +22°C° 0 mm 3 mps 761 mmHg 92%
    05:00 +22°C° 0 mm 4 mps 761 mmHg 93%
    06:00 +22°C° 0 mm 4 mps 762 mmHg 94%
    07:00 +22°C° 0 mm 5 mps 762 mmHg 95%
    08:00 +25°C° 0 mm 5 mps 762 mmHg 89%
    09:00 +26°C° 0 mm 5 mps 763 mmHg 83%
    10:00 +28°C° 0 mm 5 mps 763 mmHg 76%
    11:00 +29°C° 0 mm 4 mps 763 mmHg 70%
    12:00 +32°C° 0 mm 4 mps 762 mmHg 63%
    13:00 +33°C° 0 mm 4 mps 762 mmHg 57%
    14:00 +32°C° 0 mm 4 mps 761 mmHg 59%
    15:00 +32°C° 0 mm 4 mps 761 mmHg 61%
    16:00 +32°C° 0 mm 4 mps 760 mmHg 63%
    17:00 +29°C° 0.1 mm 4 mps 761 mmHg 72%
    18:00 +27°C° 0.1 mm 4 mps 761 mmHg 81%
    19:00 +25°C° 0.1 mm 4 mps 762 mmHg 90%
    20:00 +25°C° 0 mm 3 mps 762 mmHg 91%
    21:00 +25°C° 0 mm 3 mps 762 mmHg 91%
    22:00 +25°C° 0 mm 2 mps 763 mmHg 92%
    23:00 +24°C° 0 mm 2 mps 763 mmHg 92%

    11 December, Wednesday

    Time Temperature Precipitation Wind Pressure Humidity
    00:00 +24°C° 0 mm 1 mps 762 mmHg 92%
    01:00 +24°C° 0 mm 1 mps 762 mmHg 92%
    02:00 +24°C° 0 mm 2 mps 762 mmHg 93%
    03:00 +24°C° 0 mm 2 mps 762 mmHg 93%
    04:00 +24°C° 0 mm 2 mps 762 mmHg 94%
    05:00 +24°C° 0 mm 3 mps 762 mmHg 94%
    06:00 +22°C° 0 mm 3 mps 763 mmHg 95%
    07:00 +22°C° 0 mm 3 mps 763 mmHg 95%
    08:00 +25°C° 0 mm 4 mps 763 mmHg 88%
    09:00 +27°C° 0 mm 4 mps 764 mmHg 81%
    10:00 +29°C° 0 mm 4 mps 764 mmHg 74%
    11:00 +30°C° 0 mm 4 mps 764 mmHg 69%
    12:00 +31°C° 0 mm 3 mps 763 mmHg 64%
    13:00 +33°C° 0 mm 3 mps 763 mmHg 58%
    14:00 +32°C° 0.1 mm 4 mps 763 mmHg 61%
    15:00 +32°C° 0.1 mm 4 mps 762 mmHg 64%
    16:00 +30°C° 0.1 mm 5 mps 762 mmHg 67%
    17:00 +29°C° 0.2 mm 5 mps 762 mmHg 74%
    18:00 +27°C° 0.2 mm 5 mps 762 mmHg 82%
    19:00 +26°C° 0.2 mm 5 mps 763 mmHg 90%
    20:00 +25°C° 0.1 mm 5 mps 763 mmHg 91%
    21:00 +25°C° 0.1 mm 5 mps 763 mmHg 91%
    22:00 +25°C° 0.1 mm 5 mps 763 mmHg 92%
    23:00 +25°C° 0 mm 5 mps 763 mmHg 94%

    12 December, Thursday

    Time Temperature Precipitation Wind Pressure Humidity
    00:00 +23°C° 0 mm 5 mps 763 mmHg 95%
    01:00 +23°C° 0 mm 5 mps 763 mmHg 96%
    02:00 +23°C° 0 mm 5 mps 762 mmHg 96%
    03:00 +23°C° 0 mm 5 mps 762 mmHg 96%
    04:00 +23°C° 0 mm 5 mps 762 mmHg 96%
    05:00 +22°C° 0.1 mm 5 mps 762 mmHg 96%
    06:00 +22°C° 0.1 mm 5 mps 763 mmHg 95%
    07:00 +22°C° 0.1 mm 5 mps 763 mmHg 95%
    08:00 +25°C° 0.1 mm 5 mps 763 mmHg 87%
    09:00 +27°C° 0.1 mm 6 mps 764 mmHg 78%
    10:00 +29°C° 0.1 mm 6 mps 764 mmHg 70%
    11:00 +29°C° 0 mm 6 mps 764 mmHg 67%
    12:00 +30°C° 0 mm 6 mps 763 mmHg 64%
    13:00 +32°C° 0 mm 6 mps 763 mmHg 61%
    14:00 +30°C° 0 mm 7 mps 762 mmHg 63%
    15:00 +30°C° 0 mm 7 mps 762 mmHg 64%
    16:00 +29°C° 0 mm 7 mps 761 mmHg 66%
    17:00 +28°C° 0 mm 7 mps 761 mmHg 72%
    18:00 +27°C° 0 mm 7 mps 762 mmHg 79%
    19:00 +24°C° 0 mm 7 mps 762 mmHg 85%
    20:00 +24°C° 0 mm 6 mps 762 mmHg 87%
    21:00 +24°C° 0 mm 6 mps 762 mmHg 89%
    22:00 +23°C° 0 mm 6 mps 762 mmHg 91%
    23:00 +23°C° 0 mm 6 mps 762 mmHg 92%

    13 December, Friday

    Time Temperature Precipitation Wind Pressure Humidity
    00:00 +22°C° 0 mm 5 mps 762 mmHg 92%
    01:00 +22°C° 0 mm 5 mps 762 mmHg 93%
    02:00 +22°C° 0 mm 5 mps 761 mmHg 93%
    03:00 +22°C° 0 mm 5 mps 761 mmHg 93%
    04:00 +22°C° 0 mm 5 mps 760 mmHg 93%
    05:00 +21°C° 0 mm 5 mps 760 mmHg 94%
    06:00 +21°C° 0 mm 5 mps 761 mmHg 94%
    07:00 +21°C° 0 mm 5 mps 761 mmHg 94%
    08:00 +23°C° 0 mm 5 mps 761 mmHg 86%
    09:00 +26°C° 0 mm 5 mps 761 mmHg 78%
    10:00 +28°C° 0 mm 6 mps 761 mmHg 71%
    11:00 +29°C° 0 mm 5 mps 761 mmHg 65%
    12:00 +30°C° 0 mm 4 mps 760 mmHg 60%
    13:00 +32°C° 0 mm 4 mps 759 mmHg 55%
    14:00 +30°C° 0 mm 4 mps 759 mmHg 56%
    15:00 +30°C° 0 mm 3 mps 758 mmHg 57%
    16:00 +30°C° 0 mm 3 mps 758 mmHg 59%
    17:00 +28°C° 0 mm 3 mps 758 mmHg 67%
    18:00 +26°C° 0 mm 3 mps 758 mmHg 74%
    19:00 +24°C° 0 mm 2 mps 759 mmHg 82%
    20:00 +24°C° 0 mm 2 mps 759 mmHg 83%
    21:00 +24°C° 0 mm 2 mps 759 mmHg 84%
    22:00 +24°C° 0 mm 2 mps 759 mmHg 85%
    23:00 +23°C° 0 mm 2 mps 759 mmHg 87%
    Show more